Flag for Germany Weather past 2 weeks in Hagen, North Rhine-Westphalia, Germany

Now
39 °F

Overcast.


Feels Like: 39 °F
Forecast: 34 / 51 °F
Wind: 2 mph from South

Location: Duesseldorf

Current Time: Mar 6, 2015 at 5:41:24 AM

Latest Report: Mar 6, 2015 at 4:00 AM


Visibility: 19 mi

Pressure: 30.63 "Hg

Humidity: 79%

Dew point: 33 °F

Location of HagenLocation

Historic Weather in Hagen — Graph

°F

Hagen temperature yesterday

Maximum temperature yesterday: 48 °F (at 4:00 PM)
Minimum temperature yesterday: 37 °F (at 5:00 AM)
Average temperature yesterday: 42 °F

Past Weeks' High & Low Weather Summary

 TemperatureHumidityPressure
High52 °F (Mar 1, 1:00 PM)99% (Feb 22, 6:00 AM)30.68 "Hg (Feb 22, 6:00 AM)
Low28 °F (Feb 28, 5:00 AM)47% (Mar 2, 2:00 PM)29.35 "Hg (Feb 21, 5:00 AM)
Average40 °F80%29.93 "Hg
* Reported Feb 19 3:00 AM — Mar 6 3:00 AM, Hagen, Weather by CustomWeather, © 2015

Note: Actual official high and low records may vary slightly from our data, if they occured in-between our weather recording intervals... More about our weather records

Advertising

Hagen weather history for previous 24 hours

 ConditionsComfort  
Time TempWeatherWind HumidityBarometerVisibility
3:00 AM
Fri, Mar 6
38 °FOvercast.2 mph84%30.63 "Hg19 mi
2:00 AM37 °FOvercast.2 mph86%30.64 "Hg19 mi
1:00 AM33 °FOvercast.1 mph92%30.64 "Hg25 mi
12:00 AM34 °FPassing clouds.2 mph92%30.65 "Hg19 mi
9:00 PM
Thu, Mar 5
42 °FPassing clouds.2 mph76%30.64 "Hg25 mi
8:00 PM43 °FOvercast.2 mph73%30.64 "Hg22 mi
7:00 PM44 °FPassing clouds.2 mph71%30.63 "Hg19 mi
6:00 PM47 °FOvercast.3 mph62%30.63 "Hg22 mi
5:00 PM47 °FOvercast.5 mph57%30.63 "Hg22 mi
4:00 PM48 °FOvercast.5 mph56%30.63 "Hg22 mi
3:00 PM47 °FOvercast.3 mph59%30.63 "Hg22 mi
2:00 PM46 °FOvercast.3 mph65%30.64 "Hg16 mi
1:00 PM45 °FOvercast.2 mph74%30.66 "Hg11 mi
12:00 PM42 °FOvercast.2 mph83%30.67 "Hg8 mi
11:00 AM39 °FFog.2 mph93%30.68 "Hg3 mi
9:00 AM38 °FFog.2 mph97%30.66 "Hg2 mi
8:00 AM38 °FFog.3 mph97%30.64 "Hg2 mi
7:00 AM38 °FFog.3 mph96%30.63 "Hg2 mi
6:00 AM37 °FLow clouds.3 mph95%30.62 "Hg9 mi
5:00 AM37 °FPassing clouds.2 mph93%30.60 "Hg17 mi
Weather by CustomWeather, © 2015

See weather overviewHow to use our weather pages